カタログに戻る

CZ-6A DEB

運用中SSO
NORAD 54943·DEBRIS·🇨🇳 China

打ち上げ Nov 11, 2022 から Taiyuan Satellite Launch Center

Loading…

次のパス (今後24時間)

TLE

最新Source: Space-Track

元期: Sep 14, 2026, 06:45 UTC

1 54943U 22151SG  26257.28156896  .00002146  00000-0  88331-3 0  9992
2 54943  98.7914 279.8956 0019852  16.3711 343.8107 14.27890825198566

AllMySatでCZ-6A DEBをリアルタイム追跡

Download on the App Store